Location: Newark
(7.0858°N, 171.3717°E)
Time: 07:52:48
(UTC+00:00)

Courier 1B - Pass Details

Date: 30 November 2020
Orbit: 962 x 1209 km, 28.3° (Epoch: 20 January)

Event Time Altitude Azimuth Distance (km) Brightness Sun altitude
Rises 12:52:50 0° 315° (NW) 3,806 - -73.7°
Reaches altitude 10° 12:57:13 10° 340° (NNW) 2,911 - -73.2°
Maximum altitude 13:00:38 14° 9° (N) 2,681 - -72.8°
Drops below altitude 10° 13:04:08 10° 38° (NE) 3,001 - -72.3°
Sets 13:08:47 0° 63° (ENE) 4,016 - -71.7°
